"Pseudo-MPEC" for C03E9V1

Created 2019 Feb 13 5:18:12 UT using Find_Orb

Click here for an explanation of pseudo-MPECs

 
 Astrometry: 
     C03E9V1  C2019 02 081(^k_SrS,3@bVby:=G8o/]pEhKAhdYAstrometrySlqy+Jq80*YsF52
     C03E9V1  C2019 02 08G0B0m806=QX'd1M60Y`'qq2*Dp[C(Of8vXHfvTDWrV+.@IHit4t:F52
     C03E9V1  C2019 02 09.45518 13 47 53.45 +05 44 31.4    ~29Fm 19.4 GVNEOCP703
     C03E9V1  C2019 02 09.46046 13 47 50.51 +05 44 59.2    ~29Fm 19.8 GVNEOCP703
     C03E9V1  C2019 02 09.47103 13 47 44.46 +05 45 57.7    ~29Fm 19.4 GVNEOCP703
     C03E9V1  C2019 02 09.50228 13 47 26.89 +05 48 44.9    ~29NX 19.5 GVNEOCPI52
     C03E9V1  C2019 02 09.50443 13 47 25.69 +05 48 56.6    ~29NX 19.6 GVNEOCPI52
     C03E9V1  C2019 02 09.50628 13 47 24.66 +05 49 06.3    ~29NX 19.5 GVNEOCPI52
     C03E9V1  C2019 02 09.50658 13 47 24.48 +05 49 08.1    ~29NX 19.4 GVNEOCPI52
     C03E9V1  C2019 02 11.43349 13 31 03.81 +08 29 16.3    ~2BBI 19.3 GVNEOCPG96
     C03E9V1  C2019 02 11.43863 13 31 01.23 +08 29 40.2    ~2BBI 19.6 GVNEOCPG96
     C03E9V1  C2019 02 11.44380 13 30 58.62 +08 30 03.7    ~2BBI 19.6 GVNEOCPG96
     C03E9V1  C2019 02 11.44894 13 30 56.04 +08 30 27.4    ~2BBI 19.2 GVNEOCPG96
     C03E9V1 KC2019 02 11!QpRredacted;0r,L==yMH-mfVoVP)*Hx^6M0+2SUc'6I.Sg-inNK88
     C03E9V1 KC2019 02 11JX%bnRrJ7^$FA(9E6F2w'UkUepx+%/^^q,kDW(([)_V1R!!RgxYCK88
     C03E9V1 KC2019 02 12@FW$_)0PMg2/oHY4'-YfEIU-clickcvU)v3a[q1C_xR;mUtN///e204
     C03E9V1 HC2019 02 12/4'l0nSldJW-cU9%InSwX,t'O#7A;cP)DB:8u`=ccMVBv%vM]83W204
     C03E9V1 KC2019 02 12N54rW(0-hf-+)JX:m.?herei5V[Ig!fgJa;_u4qWxXE?e*i=\K5%204
     C03E9V1  C2019 02 12.37353 13 23 43.71 +09 38 58.9    ~2C9I 19.1 GVNEOCPI52
     C03E9V1  C2019 02 12.37395 13 23 43.54 +09 39 00.2    ~2C9I 19.4 GVNEOCPI52
     C03E9V1  C2019 02 12.37436 13 23 43.32 +09 39 02.3    ~2C9I 19.7 GVNEOCPI52
     C03E9V1  C2019 02 12.37478 13 23 43.11 +09 39 03.8    ~2C9I 19.3 GVNEOCPI52
     C03E9V1 KC2019 02 13*i].PyH%gs\?Q[^pf;_)1v.GU#FpAYg%IJhS#6Yj/o0`QHVqcoukL01
     C03E9V1 KC2019 02 13a8A%c/X@Ek1.aAnli$cSs=(?Y$@yFka^\'!k:A6+RxFMforl8=JUL01
     C03E9V1 KC2019 02 1306+0\F3@(nuM.=no;:Ba-91b=/5I%u3pD,'1c%!7h=T\fpPcW]VCL01
     C03E9V1 KC2019 02 13d1'jUgKfm5EngfZ#R*TobkL_Ek4wx.^explanationCcKn)?])3cL01

Station data:
(204) Schiaparelli Observatory  (N45.867933 E8.770800)  Italy.  Observer L.
   Buzzi. 0.60-m f/4.64 Newtonian + CCD.
(703) Catalina Sky Survey  (N32.417006 W110.732640)  US/Arizona.  Observers
   B. M. Africano, E. J. Christensen, G. A. Farneth, D. C. Fuls, A. R. Gibbs,
   A. D. Grauer, H. Groeller, J. A. Johnson, R. A. Kowalski, S. M. Larson, G.
   J. Leonard, R. L. Seaman, F. C. Shelly. 0.68 m Schmidt + 10K CCD.
(F52) Pan-STARRS 2, Haleakala  (N20.707384 W156.255910)  US/Hawaii.
(G96) Mt. Lemmon Survey  (N32.442754 W110.788720)  US/Arizona.  Observers B.
   M. Africano, E. J. Christensen, G. A. Farneth, D. C. Fuls, A. R. Gibbs, A.
   D. Grauer, H. Groeller, J. A. Johnson, R. A. Kowalski, S. M. Larson, G. J.
   Leonard, R. L. Seaman, F. C. Shelly. 1.5-m reflector + 10K CCD.
(I52) Steward Observatory, Mt. Lemmon Station  (N32.442547 W110.788920)
   US/Arizona.  Observers B. M. Africano, E. J. Christensen, G. A. Farneth,
   D. C. Fuls, A. R. Gibbs, A. D. Grauer, H. Groeller, J. A. Johnson, R. A.
   Kowalski, S. M. Larson, G. J. Leonard, R. L. Seaman, F. C. Shelly. 1.0-m
   reflector + CCD.
(K88) GINOP-KHK, Piszkéstető  (N47.917622 E19.893600)  Hungary.  Observer K.
   Sárneczky. 0.60-m Schmidt + CCD.
(L01) Višnjan Observatory, Tičan  (N45.290900 E13.749300)  Croatia.
   Observers K. Korlević, E. Pettarin. Measurer E. Pettarin. 1.0-m f/2.9
   reflector + CCD.

Orbital elements:  C03E9V1
   Perihelion 2018 Dec 19.725178 +/- 0.0842 TT = 17:24:15 (JD 2458472.225178)
Epoch 2019 Feb 13.0 TT = JDT 2458527.5   Earth MOID: 0.0172   Ve: 0.0762
M  21.89025011 +/- 0.31             Ma: 0.0122                AutoNEOCP
n   0.39602569 +/- 0.00503          Peri.  295.52001 +/- 0.06
a   1.83648395 +/- 0.0156           Node   131.28951 +/- 0.037
e   0.6042839 +/- 0.0042            Incl.    7.46441 +/- 0.047
P   2.49/909.01d           H 22.0   G  0.15   U  9.2  
q 0.72672608 +/- 0.00153    Q 2.94624181 +/- 0.0323
From 26 observations 2019 Feb. 8-13; mean residual 0".27
Residuals in arcseconds: 
190208 F52  .11-  .12+    190211 G96  .05-  .16+    190212 I52  .12-  .28+    
190208 F52  .00   .08+    190211 G96  .06+  .25+    190212 I52  .31+  .23-    
190209 703  .28+  .17-    190211 G96  .04-  .18-    190212 I52  .06-  .10+    
190209 703  .81+  .84-    190211 G96  .09+  .26-    190212 I52  .22-  .21-    
190209 703  .59-  .70+    190211 K88  .69-  .20-    190213 L01  .13+  .14-    
190209 I52  .22-  .06-    190211 K88  .38+  .06-    190213 L01  .15+  .10+    
190209 I52  .07-  .11+    190212 204  .21+  .13+    190213 L01  .01+  .04+    
190209 I52  .09+  .11-    190212 204  .19-  .24+    190213 L01  .05+  .03-    
190209 I52  .08-  .08+    190212 204  .04-  .10+    

Ephemerides (geocentric):
Date (UTC) HH   RA              Dec         delta   r     elong  mag " sig PA
---- -- -- --  -------------   -----------  ------ ------ -----  --- ---- ---
2019 02 13 05  13 17 29.164   +10 37 00.08  .15080 1.0867 128.1 19.8 .228 146
2019 02 13 06  13 17 11.021   +10 39 46.53  .15104 1.0871 128.2 19.8 .227 146
2019 02 13 07  13 16 52.919   +10 42 32.41  .15127 1.0875 128.3 19.8 .227 145
2019 02 13 08  13 16 34.859   +10 45 17.72  .15151 1.0879 128.4 19.8 .226 145
2019 02 13 09  13 16 16.841   +10 48 02.48  .15175 1.0883 128.5 19.8 .225 144
2019 02 13 10  13 15 58.864   +10 50 46.67  .15199 1.0887 128.7 19.8 .224 143
2019 02 13 11  13 15 40.929   +10 53 30.30  .15223 1.0891 128.8 19.8 .223 143
2019 02 13 12  13 15 23.035   +10 56 13.37  .15246 1.0895 128.9 19.8 .223 142
2019 02 13 13  13 15 05.183   +10 58 55.89  .15270 1.0899 129.0 19.8 .222 141
2019 02 13 14  13 14 47.372   +11 01 37.85  .15294 1.0903 129.1 19.8 .221 141
2019 02 13 15  13 14 29.602   +11 04 19.26  .15318 1.0907 129.2 19.8 .221 140
2019 02 13 16  13 14 11.872   +11 07 00.12  .15342 1.0911 129.4 19.8 .220 139
2019 02 13 17  13 13 54.184   +11 09 40.43  .15367 1.0915 129.5 19.8 .220 138
2019 02 13 18  13 13 36.536   +11 12 20.19  .15391 1.0919 129.6 19.8 .219 138
2019 02 13 19  13 13 18.929   +11 14 59.41  .15415 1.0923 129.7 19.8 .219 137
2019 02 13 20  13 13 01.362   +11 17 38.08  .15439 1.0927 129.8 19.8 .219 136
2019 02 13 21  13 12 43.835   +11 20 16.20  .15463 1.0931 129.9 19.8 .218 135
2019 02 13 22  13 12 26.349   +11 22 53.79  .15488 1.0935 130.1 19.8 .218 134
2019 02 13 23  13 12 08.903   +11 25 30.83  .15512 1.0939 130.2 19.8 .218 133
2019 02 14 00  13 11 51.496   +11 28 07.34  .15536 1.0943 130.3 19.8 .218 133
2019 02 14 01  13 11 34.129   +11 30 43.31  .15561 1.0947 130.4 19.8 .218 132
2019 02 14 02  13 11 16.803   +11 33 18.74  .15585 1.0951 130.5 19.8 .219 131
2019 02 14 03  13 10 59.515   +11 35 53.64  .15609 1.0955 130.6 19.8 .219 130
2019 02 14 04  13 10 42.267   +11 38 28.01  .15634 1.0959 130.8 19.8 .219 129
2019 02 14 05  13 10 25.059   +11 41 01.85  .15658 1.0963 130.9 19.8 .220 128
2019 02 14 06  13 10 07.890   +11 43 35.16  .15683 1.0967 131.0 19.8 .220 127
2019 02 14 07  13 09 50.760   +11 46 07.94  .15708 1.0971 131.1 19.8 .221 126
2019 02 14 08  13 09 33.668   +11 48 40.20  .15732 1.0975 131.2 19.8 .222 125
2019 02 14 09  13 09 16.616   +11 51 11.94  .15757 1.0979 131.3 19.8 .223 124
2019 02 14 10  13 08 59.603   +11 53 43.15  .15782 1.0983 131.4 19.8 .224 123
2019 02 14 11  13 08 42.628   +11 56 13.84  .15806 1.0987 131.5 19.8 .225 122
2019 02 14 12  13 08 25.692   +11 58 44.01  .15831 1.0991 131.7 19.8 .226 121
2019 02 14 13  13 08 08.794   +12 01 13.67  .15856 1.0995 131.8 19.8 .227 120
2019 02 14 14  13 07 51.934   +12 03 42.81  .15881 1.0999 131.9 19.8 .229 119
2019 02 14 15  13 07 35.113   +12 06 11.44  .15906 1.1003 132.0 19.8 .230 118
2019 02 14 16  13 07 18.330   +12 08 39.55  .15930 1.1007 132.1 19.8 .232 117
2019 02 14 17  13 07 01.584   +12 11 07.15  .15955 1.1011 132.2 19.8 .234 116
2019 02 14 18  13 06 44.877   +12 13 34.24  .15980 1.1015 132.3 19.8 .236 115
2019 02 14 19  13 06 28.207   +12 16 00.83  .16005 1.1019 132.4 19.8 .238 114
2019 02 14 20  13 06 11.575   +12 18 26.91  .16030 1.1023 132.5 19.8 .240 113
2019 02 14 21  13 05 54.981   +12 20 52.48  .16056 1.1027 132.7 19.8 .242 112
2019 02 14 22  13 05 38.424   +12 23 17.55  .16081 1.1031 132.8 19.8 .245 112
2019 02 14 23  13 05 21.904   +12 25 42.12  .16106 1.1035 132.9 19.8 .247 111
2019 02 15 00  13 05 05.421   +12 28 06.19  .16131 1.1039 133.0 19.8 .250 110
2019 02 15 01  13 04 48.976   +12 30 29.77  .16156 1.1043 133.1 19.8 .253 109
2019 02 15 02  13 04 32.567   +12 32 52.84  .16181 1.1047 133.2 19.8 .256 108
2019 02 15 03  13 04 16.195   +12 35 15.42  .16207 1.1051 133.3 19.8 .259 107
2019 02 15 04  13 03 59.861   +12 37 37.51  .16232 1.1055 133.4 19.8 .262 106